Time,TemperatureF,DewpointF,PressureIn,WindDirection,WindDirectionDegrees,WindSpeedMPH,WindSpeedGustMPH,Humidity,HourlyPrecipIn,Conditions,Clouds,dailyrainin,SoftwareType,DateUTC
2016-07-29 00:11:00,82.0,78.0,30.04,SE,130,-999.9,-999.0,88,-99.99,,,-99.99,,2016-07-29 04:11:00,
2016-07-29 00:21:00,82.0,78.0,30.04,SE,130,-999.9,-999.0,88,-99.99,,,-99.99,,2016-07-29 04:21:00,
2016-07-29 00:30:00,82.0,79.0,30.03,SSE,147,2.0,-999.0,90,-99.99,,,-99.99,,2016-07-29 04:30:00,
2016-07-29 00:41:00,82.0,78.0,30.04,SE,129,-999.9,-999.0,88,-99.99,,,-99.99,,2016-07-29 04:41:00,
2016-07-29 00:53:00,82.0,79.0,30.04,SSE,149,-999.9,-999.0,89,-99.99,,,-99.99,,2016-07-29 04:53:00,
2016-07-29 01:14:00,82.0,79.0,30.03,North,-9999,-999.9,-999.0,90,-99.99,,,-99.99,,2016-07-29 05:14:00,
2016-07-29 01:22:00,82.0,79.0,30.03,SSE,147,2.0,-999.0,90,-99.99,,,-99.99,,2016-07-29 05:22:00,
2016-07-29 01:53:00,81.0,79.0,30.03,WSW,249,0.0,-999.0,93,-99.99,,,-99.99,,2016-07-29 05:53:00,
2016-07-29 02:06:00,81.0,79.0,30.03,SW,222,-999.9,-999.0,95,-99.99,,,-99.99,,2016-07-29 06:06:00,
2016-07-29 02:21:00,80.0,79.0,30.03,North,6,2.0,3.0,96,-99.99,,,-99.99,,2016-07-29 06:21:00,
2016-07-29 02:29:00,80.0,79.0,30.03,North,6,2.0,3.0,96,-99.99,,,-99.99,,2016-07-29 06:29:00,
2016-07-29 02:45:00,79.0,78.0,30.03,SW,231,2.0,3.0,97,-99.99,,,-99.99,,2016-07-29 06:45:00,
2016-07-29 02:58:00,79.0,78.0,30.03,SW,231,2.0,3.0,97,-99.99,,,-99.99,,2016-07-29 06:58:00,
2016-07-29 03:06:00,79.0,78.0,30.03,NNW,335,3.0,4.0,97,-99.99,,,-99.99,,2016-07-29 07:06:00,
2016-07-29 03:15:00,79.0,78.0,30.03,NNW,335,3.0,4.0,97,-99.99,,,-99.99,,2016-07-29 07:15:00,
2016-07-29 03:28:00,79.0,78.0,30.03,NNW,335,3.0,4.0,97,-99.99,,,-99.99,,2016-07-29 07:28:00,
2016-07-29 03:30:00,78.0,78.0,30.03,SW,232,1.0,2.0,97,-99.99,,,-99.99,,2016-07-29 07:30:00,
2016-07-29 03:57:00,79.0,78.0,30.03,NW,312,3.0,4.0,97,-99.99,,,-99.99,,2016-07-29 07:57:00,
2016-07-29 04:04:00,78.0,78.0,30.03,SW,232,1.0,2.0,97,-99.99,,,-99.99,,2016-07-29 08:04:00,
2016-07-29 04:13:00,78.0,78.0,30.03,SW,232,1.0,2.0,97,-99.99,,,-99.99,,2016-07-29 08:13:00,
2016-07-29 04:23:00,78.0,78.0,30.03,SW,232,1.0,2.0,97,-99.99,,,-99.99,,2016-07-29 08:23:00,
2016-07-29 04:47:00,79.0,78.0,30.03,West,265,1.0,2.0,97,-99.99,,,-99.99,,2016-07-29 08:47:00,
2016-07-29 04:54:00,79.0,78.0,30.03,West,265,1.0,2.0,97,-99.99,,,-99.99,,2016-07-29 08:54:00,
2016-07-29 05:04:00,79.0,78.0,30.03,East,100,2.0,3.0,97,-99.99,,,-99.99,,2016-07-29 09:04:00,
2016-07-29 05:13:00,78.0,78.0,30.02,NE,43,2.0,2.0,97,-99.99,,,-99.99,,2016-07-29 09:13:00,
2016-07-29 05:24:00,78.0,78.0,30.02,NE,43,2.0,2.0,97,-99.99,,,-99.99,,2016-07-29 09:24:00,
2016-07-29 05:30:00,78.0,78.0,30.03,NNE,27,1.0,-999.0,97,-99.99,,,-99.99,,2016-07-29 09:30:00,
2016-07-29 05:41:00,78.0,78.0,30.02,NE,43,2.0,-999.0,97,-99.99,,,-99.99,,2016-07-29 09:41:00,
2016-07-29 06:11:00,78.0,78.0,30.03,NNE,27,-999.9,-999.0,97,-99.99,,,-99.99,,2016-07-29 10:11:00,
2016-07-29 06:21:00,78.0,78.0,30.03,NNE,27,1.0,-999.0,97,-99.99,,,-99.99,,2016-07-29 10:21:00,
2016-07-29 06:41:00,78.0,77.0,30.03,NNE,25,-999.9,-999.0,97,-99.99,,,-99.99,,2016-07-29 10:41:00,
2016-07-29 07:22:00,78.0,77.0,30.02,ENE,66,1.0,-999.0,97,-99.99,,,-99.99,,2016-07-29 11:22:00,
2016-07-29 07:47:00,78.0,77.0,30.04,WNW,285,2.0,3.0,96,-99.99,,,-99.99,,2016-07-29 11:47:00,
2016-07-29 07:57:00,78.0,77.0,30.04,WNW,285,2.0,3.0,96,-99.99,,,-99.99,,2016-07-29 11:57:00,
2016-07-29 08:17:00,80.0,78.0,30.05,SSE,151,2.0,-999.0,95,-99.99,,,-99.99,,2016-07-29 12:17:00,
2016-07-29 08:26:00,80.0,78.0,30.05,SSE,151,2.0,-999.0,95,-99.99,,,-99.99,,2016-07-29 12:26:00,
2016-07-29 08:45:00,81.0,79.0,30.05,WNW,284,2.0,4.0,92,-99.99,,,-99.99,,2016-07-29 12:45:00,
2016-07-29 08:59:00,82.0,78.0,30.05,NW,318,3.0,4.0,89,-99.99,,,-99.99,,2016-07-29 12:59:00,
2016-07-29 09:08:00,83.0,79.0,30.05,WNW,295,3.0,4.0,87,-99.99,,,-99.99,,2016-07-29 13:08:00,
2016-07-29 09:17:00,83.0,79.0,30.05,WNW,295,3.0,-999.0,87,-99.99,,,-99.99,,2016-07-29 13:17:00,
2016-07-29 09:41:00,85.0,78.0,30.06,WSW,254,1.0,-999.0,80,-99.99,,,-99.99,,2016-07-29 13:41:00,
2016-07-29 09:50:00,86.0,78.0,30.06,ESE,108,1.0,-999.0,77,-99.99,,,-99.99,,2016-07-29 13:50:00,
2016-07-29 09:58:00,86.0,78.0,30.06,ESE,108,1.0,2.0,77,-99.99,,,-99.99,,2016-07-29 13:58:00,
2016-07-29 10:04:00,86.0,78.0,30.06,SW,235,1.0,3.0,76,-99.99,,,-99.99,,2016-07-29 14:04:00,
2016-07-29 10:15:00,86.0,78.0,30.06,SW,235,1.0,3.0,76,-99.99,,,-99.99,,2016-07-29 14:15:00,
2016-07-29 10:34:00,86.0,78.0,30.06,WNW,287,1.0,3.0,77,-99.99,,,-99.99,,2016-07-29 14:34:00,
2016-07-29 10:55:00,88.0,78.0,30.06,SSW,206,2.0,4.0,70,-99.99,,,-99.99,,2016-07-29 14:55:00,
2016-07-29 11:04:00,89.0,78.0,30.06,SW,217,3.0,5.0,70,-99.99,,,-99.99,,2016-07-29 15:04:00,
2016-07-29 11:17:00,89.0,78.0,30.06,WNW,288,3.0,5.0,68,-99.99,,,-99.99,,2016-07-29 15:17:00,
2016-07-29 11:24:00,89.0,78.0,30.06,WNW,288,3.0,5.0,68,-99.99,,,-99.99,,2016-07-29 15:24:00,
2016-07-29 11:53:00,91.0,76.0,30.06,South,174,2.0,-999.0,60,-99.99,,,-99.99,,2016-07-29 15:53:00,
2016-07-29 12:21:00,91.0,77.0,30.05,SW,225,3.0,-999.0,62,-99.99,,,-99.99,,2016-07-29 16:21:00,
2016-07-29 12:31:00,91.0,77.0,30.05,North,-9999,-999.9,-999.0,62,-99.99,,,-99.99,,2016-07-29 16:31:00,
2016-07-29 12:43:00,91.0,76.0,30.05,North,-9999,-999.9,-999.0,60,-99.99,,,-99.99,,2016-07-29 16:43:00,
2016-07-29 13:12:00,92.0,76.0,30.05,North,-9999,-999.9,-999.0,59,-99.99,,,-99.99,,2016-07-29 17:12:00,
2016-07-29 13:22:00,92.0,76.0,30.05,SSE,154,-999.9,-999.0,59,-99.99,,,-99.99,,2016-07-29 17:22:00,
2016-07-29 13:55:00,88.0,78.0,30.04,ESE,116,6.0,-999.0,71,-99.99,,,-99.99,,2016-07-29 17:55:00,
2016-07-29 14:13:00,86.0,79.0,30.04,SE,128,5.0,-999.0,80,-99.99,,,-99.99,,2016-07-29 18:13:00,
2016-07-29 14:22:00,87.0,78.0,30.03,ENE,69,10.0,-999.0,75,-99.99,,,-99.99,,2016-07-29 18:22:00,
2016-07-29 14:32:00,87.0,78.0,30.03,ENE,69,10.0,-999.0,75,-99.99,,,-99.99,,2016-07-29 18:32:00,
2016-07-29 14:57:00,88.0,75.0,30.04,SSE,167,8.0,15.0,66,-99.99,,,-99.99,,2016-07-29 18:57:00,